Miscellaneous Local Product
Issued by NWS Hastings, NE

Home | Current Version | Previous Version | Text Only | Print | Product List | Glossary Off
Versions: 1 2 3 4 5 6 7 8 9 10 11 12 13 14 15 16 17 18 19 20 21 22 23 24 25 26 27 28 29 30 31 32 33 34 35 36 37 38 39 40 41 42 43 44 45 46 47 48 49 50

514
AXUS43 KGID 220202
MISGRI

GID CWA HOURLY WEATHER ROUNDUP
NATIONAL WEATHER SERVICE HASTINGS NE
900 PM CDT SUN MAY 21 2017

NOTE: "FAIR" INDICATES FEW OR NO CLOUDS BELOW 12,000 FEET WITH NO
SIGNIFICANT WEATHER AND/OR OBSTRUCTIONS TO VISIBILITY.

...SOUTH CENTRAL NEBRASKA...

CITY           SKY/WX    TMP DP  RH WIND       PRES   REMARKS
GRAND ISLAND   CLEAR     59  47  64 CALM      30.06S
HASTINGS       CLEAR     62  42  47 E5        30.08R
KEARNEY        CLEAR     63  43  48 CALM      30.07R
ORD            CLEAR     55  44  66 SW6       30.02F
YORK           CLEAR     63  41  45 CALM      30.07R
AURORA         CLEAR     63  41  45 CALM      30.07R
LEXINGTON      CLEAR     57  46  65 NW8       30.07R
HOLDREGE       CLEAR     64  40  40 CALM      30.07S
HEBRON         CLEAR     60  48  64 CALM      30.08S

...NEBRASKA PANHANDLE...

CITY           SKY/WX    TMP DP  RH WIND       PRES   REMARKS
CHADRON        MOCLDY    53  45  74 CALM      30.14R
ALLIANCE       PTCLDY    49  43  80 W9        30.13R
SCOTTSBLUFF    CLOUDY    53  32  44 NW3       30.17R
SIDNEY         CLOUDY    50  47  89 SW6       30.17S

...WESTERN AND NORTH CENTRAL NEBRASKA...

CITY           SKY/WX    TMP DP  RH WIND       PRES   REMARKS
VALENTINE      CLOUDY    62  40  44 W9        30.04R
AINSWORTH      CLOUDY    60  44  56 W5        30.03S
ONEILL         CLEAR     61  35  37 CALM      30.02S
BROKEN BOW     CLEAR     58  49  72 CALM      30.05S
IMPERIAL       MOCLDY    58  45  62 N13       30.13R
NORTH PLATTE   PTCLDY    56  47  71 W3        30.08S
MCCOOK         PTCLDY    62  43  49 N5        30.08R

...EASTERN NEBRASKA...

CITY           SKY/WX    TMP DP  RH WIND       PRES   REMARKS
NORFOLK        CLEAR     56  40  55 CALM      30.03S
SO SIOUX CITY  CLEAR     55  50  83 S3        30.03F
TEKAMAH        CLEAR     59  46  62 CALM      30.05R
COLUMBUS       CLEAR     61  41  48 SE3       30.06R
ALBION         CLEAR     53  43  70 E3        30.04S
OMAHA EPPLEY   CLEAR     59  46  62 E6        30.08R
MILLARD        CLEAR     59  46  60 CALM      30.08R
LINCOLN        CLEAR     58  46  64 SE3       30.08R
NEBRASKA CITY  CLEAR     62  36  37 CALM      30.09S
BEATRICE       CLEAR     64  47  53 SE3       30.09R
FALLS CITY     CLEAR     62  43  49 CALM      30.09S

...NORTHERN KANSAS...

CITY           SKY/WX    TMP DP  RH WIND       PRES   REMARKS
GOODLAND       CLEAR     56  50  80 SE7       30.12R
HILL CITY      CLOUDY    63  52  67 E8        30.10S
NORTON         CLEAR     61  43  51 CALM      30.08S
PHILLIPSBURG   CLEAR     63  48  59 CALM      30.08S
SMITH CENTER   PTCLDY    66  43  42 N3        30.08S
HAYS           PTCLDY    62  50  64 S9        30.10R
RUSSELL        MOCLDY    63  53  70 S9        30.08R
CONCORDIA      MOCLDY    61  51  70 S8        30.09R
SALINA         CLOUDY    67  53  61 S5        30.10R
TOPEKA         CLEAR     64  50  60 CALM      30.11S



USA.gov is the U.S. government's official web portal to all federal, state and local government web resources and services.